Terminal Aerodrome Forecast
Issued by NWS

Home | Current Version | Previous Version | Text Only | Print | Product List | Glossary On
Versions: 1 2 3 4 5 6 7 8 9 10 11 12 13 14 15 16 17 18 19 20 21
409
FTUS43 KPAH 221444 AAA
TAFCGI
TAF AMD
KCGI 221444Z 2215/2312 14010KT P6SM -SHRA BKN015 OVC035
     FM230000 16009KT 6SM -SHRA BKN020
     FM230900 17010KT 5SM SHRA BR BKN015=

USA.gov is the U.S. government's official web portal to all federal, state and local government web resources and services.